الصفحة الرئيسية
METAR-TAF:

METAR-TAF

مطار :

Longreach, أستراليا

دائرة عرض: 23-26-03S, خط طول: 144-16-49E, ارتفاع: 191 متر

مراقبة الطقس الحالي

تاريخ ووقت الإصدار 41 دقيقة قبل الساعة 17:00UTC
ريح 7 عقدة من الجنوب/الجنوب الشرقي
درجة الحرارة 17°درجة مئوية
الرطوبة 52%
ضغط 1015 hPa
الرؤية 10 كم أو أكثر

METAR: YLRE 221700Z AUTO 15007KT 9999 // NCD 17/07 Q1015

زمن: 03:41 (17:41 UTC)


TAF: مفقودة

أرصاد الطقس والتوقعات من أكثر من 4000 مطار (تقارير الطقس للمطار METAR والتنبؤ بالطقس بالمطارTAF).

المحطات المتاحة هي النقط الصفراء والحمراء على الخريطة.

حرك المؤشر فوق النقطة لمعرفة اسم المحطة.

ثم انقر لمعرفة أرصاد وتوقعات الطقس.

لتغيير الخارطة: اضغط على الأزرار الخضراء مع رمز الصليب الأسود للتكبير. على الزر الأخضر مع شرطة للتصغير، أو على الأسهم الخضراء للخرائط المجاورة.


METAR-TAF: